• In Uzbekistan
  • List of Countries
  • For 7 days
  • Water Temperature
  • Satellite Maps
  • Weather Map
  • Weather Widgets
  • user-avatar
    Login

    Hourly Weather Buenos Aires

    Today, 25 March, Saturday

    Time Temperature Precipitation Wind Pressure Humidity
    00:00 +20°C° 0 mm 3 mps 759 mmHg 91%
    01:00 +20°C° 0 mm 3 mps 759 mmHg 92%
    02:00 +20°C° 0 mm 3 mps 759 mmHg 93%
    03:00 +20°C° 0 mm 3 mps 759 mmHg 93%
    04:00 +20°C° 0 mm 3 mps 759 mmHg 93%
    05:00 +20°C° 0 mm 2 mps 759 mmHg 93%
    06:00 +21°C° 0 mm 3 mps 760 mmHg 87%
    07:00 +24°C° 0 mm 3 mps 760 mmHg 80%
    08:00 +25°C° 0 mm 3 mps 761 mmHg 74%
    09:00 +26°C° 0.3 mm 3 mps 760 mmHg 68%
    10:00 +28°C° 0.3 mm 3 mps 760 mmHg 62%
    11:00 +29°C° 0.3 mm 4 mps 760 mmHg 56%
    12:00 +30°C° 0.1 mm 4 mps 760 mmHg 52%
    13:00 +32°C° 0.1 mm 5 mps 760 mmHg 48%
    14:00 +32°C° 0.1 mm 5 mps 759 mmHg 44%
    15:00 +32°C° 0 mm 5 mps 759 mmHg 46%
    16:00 +30°C° 0 mm 6 mps 759 mmHg 48%
    17:00 +29°C° 0 mm 6 mps 759 mmHg 51%
    18:00 +27°C° 0 mm 6 mps 759 mmHg 59%
    19:00 +25°C° 0 mm 5 mps 760 mmHg 67%
    20:00 +23°C° 0 mm 5 mps 760 mmHg 75%
    21:00 +22°C° 0 mm 5 mps 760 mmHg 76%
    22:00 +22°C° 0 mm 5 mps 760 mmHg 77%
    23:00 +22°C° 0 mm 5 mps 761 mmHg 78%

    Tomorrow, 26 March, Sunday

    Time Temperature Precipitation Wind Pressure Humidity
    00:00 +22°C° 0 mm 5 mps 760 mmHg 79%
    01:00 +22°C° 0 mm 6 mps 760 mmHg 79%
    02:00 +22°C° 0 mm 6 mps 760 mmHg 80%
    03:00 +21°C° 0 mm 6 mps 760 mmHg 82%
    04:00 +21°C° 0 mm 5 mps 760 mmHg 85%
    05:00 +20°C° 0 mm 5 mps 760 mmHg 87%
    06:00 +21°C° 0 mm 5 mps 761 mmHg 83%
    07:00 +22°C° 0 mm 6 mps 761 mmHg 78%
    08:00 +23°C° 0 mm 6 mps 762 mmHg 74%
    09:00 +26°C° 0 mm 6 mps 761 mmHg 67%
    10:00 +27°C° 0 mm 5 mps 761 mmHg 60%
    11:00 +29°C° 0 mm 5 mps 761 mmHg 54%
    12:00 +30°C° 0 mm 5 mps 760 mmHg 50%
    13:00 +30°C° 0 mm 5 mps 760 mmHg 47%
    14:00 +32°C° 0 mm 5 mps 759 mmHg 44%
    15:00 +30°C° 0 mm 5 mps 759 mmHg 46%
    16:00 +30°C° 0 mm 5 mps 759 mmHg 47%
    17:00 +29°C° 0 mm 5 mps 759 mmHg 49%
    18:00 +27°C° 0 mm 5 mps 759 mmHg 57%
    19:00 +25°C° 0 mm 5 mps 760 mmHg 65%
    20:00 +23°C° 0 mm 4 mps 760 mmHg 74%
    21:00 +22°C° 0 mm 5 mps 760 mmHg 74%
    22:00 +22°C° 0 mm 5 mps 761 mmHg 74%
    23:00 +22°C° 0 mm 6 mps 761 mmHg 74%

    Day after tomorrow, 27 March, Monday

    Time Temperature Precipitation Wind Pressure Humidity
    00:00 +22°C° 0 mm 6 mps 761 mmHg 75%
    01:00 +22°C° 0 mm 6 mps 761 mmHg 77%
    02:00 +21°C° 0 mm 6 mps 761 mmHg 78%
    03:00 +21°C° 0 mm 6 mps 761 mmHg 82%
    04:00 +20°C° 0 mm 5 mps 761 mmHg 85%
    05:00 +20°C° 0 mm 5 mps 761 mmHg 89%
    06:00 +21°C° 0 mm 5 mps 762 mmHg 84%
    07:00 +22°C° 0 mm 5 mps 762 mmHg 80%
    08:00 +23°C° 0 mm 5 mps 762 mmHg 75%
    09:00 +26°C° 0 mm 5 mps 762 mmHg 68%
    10:00 +27°C° 0 mm 5 mps 763 mmHg 61%
    11:00 +29°C° 0 mm 5 mps 763 mmHg 54%
    12:00 +30°C° 0 mm 5 mps 762 mmHg 51%
    13:00 +30°C° 0 mm 6 mps 762 mmHg 48%
    14:00 +32°C° 0 mm 6 mps 761 mmHg 45%
    15:00 +30°C° 0 mm 6 mps 761 mmHg 48%
    16:00 +29°C° 0 mm 6 mps 761 mmHg 51%
    17:00 +29°C° 0 mm 7 mps 761 mmHg 54%
    18:00 +27°C° 0 mm 6 mps 761 mmHg 61%
    19:00 +26°C° 0 mm 6 mps 762 mmHg 68%
    20:00 +23°C° 0 mm 6 mps 762 mmHg 75%
    21:00 +23°C° 0 mm 6 mps 763 mmHg 74%
    22:00 +23°C° 0 mm 7 mps 763 mmHg 74%
    23:00 +23°C° 0 mm 7 mps 763 mmHg 74%

    28 March, Tuesday

    Time Temperature Precipitation Wind Pressure Humidity
    00:00 +22°C° 0 mm 7 mps 763 mmHg 76%
    01:00 +22°C° 0 mm 7 mps 763 mmHg 78%
    02:00 +21°C° 0 mm 7 mps 764 mmHg 80%
    03:00 +21°C° 0 mm 7 mps 764 mmHg 82%
    04:00 +21°C° 0 mm 6 mps 764 mmHg 83%
    05:00 +20°C° 0 mm 6 mps 764 mmHg 85%
    06:00 +21°C° 0 mm 7 mps 765 mmHg 81%
    07:00 +22°C° 0 mm 7 mps 765 mmHg 77%
    08:00 +23°C° 0 mm 7 mps 765 mmHg 73%
    09:00 +24°C° 0 mm 7 mps 765 mmHg 66%
    10:00 +27°C° 0 mm 7 mps 765 mmHg 60%
    11:00 +28°C° 0 mm 7 mps 765 mmHg 53%
    12:00 +29°C° 0 mm 7 mps 765 mmHg 50%
    13:00 +30°C° 0 mm 7 mps 764 mmHg 46%
    14:00 +32°C° 0 mm 7 mps 764 mmHg 43%
    15:00 +30°C° 0 mm 7 mps 763 mmHg 45%
    16:00 +29°C° 0 mm 7 mps 763 mmHg 47%
    17:00 +28°C° 0 mm 7 mps 763 mmHg 49%
    18:00 +27°C° 0 mm 7 mps 764 mmHg 55%
    19:00 +24°C° 0 mm 7 mps 764 mmHg 61%
    20:00 +23°C° 0 mm 7 mps 764 mmHg 67%
    21:00 +22°C° 0 mm 8 mps 764 mmHg 66%
    22:00 +22°C° 0 mm 8 mps 765 mmHg 65%
    23:00 +22°C° 0 mm 8 mps 765 mmHg 64%

    29 March, Wednesday

    Time Temperature Precipitation Wind Pressure Humidity
    00:00 +21°C° 0 mm 8 mps 765 mmHg 67%
    01:00 +20°C° 0 mm 8 mps 765 mmHg 70%
    02:00 +20°C° 0 mm 8 mps 764 mmHg 73%
    03:00 +18°C° 0 mm 8 mps 764 mmHg 75%
    04:00 +18°C° 0 mm 8 mps 764 mmHg 76%
    05:00 +18°C° 0 mm 8 mps 764 mmHg 78%
    06:00 +20°C° 0 mm 8 mps 765 mmHg 74%
    07:00 +21°C° 0 mm 8 mps 765 mmHg 71%
    08:00 +21°C° 0 mm 9 mps 766 mmHg 68%
    09:00 +23°C° 0 mm 8 mps 765 mmHg 62%
    10:00 +24°C° 0 mm 8 mps 765 mmHg 56%
    11:00 +27°C° 0 mm 8 mps 765 mmHg 51%
    12:00 +28°C° 0 mm 7 mps 764 mmHg 48%
    13:00 +28°C° 0 mm 7 mps 763 mmHg 44%
    14:00 +29°C° 0 mm 7 mps 762 mmHg 41%
    15:00 +29°C° 0 mm 7 mps 762 mmHg 43%
    16:00 +28°C° 0 mm 7 mps 762 mmHg 44%
    17:00 +28°C° 0 mm 7 mps 762 mmHg 46%
    18:00 +26°C° 0 mm 6 mps 762 mmHg 52%
    19:00 +24°C° 0 mm 6 mps 762 mmHg 59%
    20:00 +23°C° 0 mm 6 mps 762 mmHg 65%
    21:00 +22°C° 0 mm 7 mps 762 mmHg 65%
    22:00 +22°C° 0 mm 8 mps 762 mmHg 66%
    23:00 +22°C° 0 mm 9 mps 762 mmHg 66%

    30 March, Thursday

    Time Temperature Precipitation Wind Pressure Humidity
    00:00 +21°C° 0 mm 9 mps 762 mmHg 68%
    01:00 +21°C° 0 mm 8 mps 761 mmHg 70%
    02:00 +20°C° 0 mm 8 mps 761 mmHg 73%
    03:00 +20°C° 0 mm 8 mps 761 mmHg 74%
    04:00 +18°C° 0 mm 7 mps 761 mmHg 75%
    05:00 +18°C° 0 mm 7 mps 761 mmHg 76%
    06:00 +18°C° 0 mm 7 mps 761 mmHg 73%
    07:00 +20°C° 0 mm 8 mps 761 mmHg 69%
    08:00 +21°C° 0 mm 9 mps 761 mmHg 65%
    09:00 +22°C° 0 mm 8 mps 761 mmHg 61%
    10:00 +23°C° 0 mm 8 mps 761 mmHg 57%
    11:00 +24°C° 0 mm 8 mps 761 mmHg 52%
    12:00 +24°C° 0 mm 7 mps 760 mmHg 52%
    13:00 +24°C° 0 mm 7 mps 760 mmHg 51%
    14:00 +24°C° 0 mm 6 mps 759 mmHg 51%
    15:00 +25°C° 0.1 mm 5 mps 759 mmHg 56%
    16:00 +23°C° 0.1 mm 4 mps 759 mmHg 60%
    17:00 +22°C° 0.1 mm 3 mps 760 mmHg 65%
    18:00 +22°C° 0.5 mm 4 mps 760 mmHg 69%
    19:00 +21°C° 0.5 mm 4 mps 760 mmHg 74%
    20:00 +21°C° 0.5 mm 5 mps 760 mmHg 79%
    21:00 +21°C° 0.3 mm 5 mps 760 mmHg 80%
    22:00 +21°C° 0.3 mm 5 mps 760 mmHg 80%
    23:00 +21°C° 0.3 mm 6 mps 760 mmHg 81%
    Show more